DW3348 Weather Reports


time (UTC)temp
C
wind
direction
speed
KPH
gust
KPH
rain 1hr
cm
rain 24hr
cm
rain mn
cm
humidity
%
barometer
mb
20260503230526 31 97 0.0 6.4 0.00 0.00 0.00 33 1009.9
20260503225626 31 120 0.0 6.4 0.00 0.00 0.00 31 1010.0
20260503224727 32 132 1.6 9.7 0.00 0.00 0.00 30 1010.1
20260503222926 32 151 1.6 9.7 0.00 0.00 0.00 32 1010.2
20260503222027 32 186 3.2 8.0 0.00 0.00 0.00 29 1010.3
20260503221126 32 195 3.2 8.0 0.00 0.00 0.00 28 1010.4
20260503220227 32 196 1.6 9.7 0.00 0.00 0.00 32 1010.4
20260503215326 32 208 1.6 6.4 0.00 0.00 0.00 33 1010.5
20260503214426 32 222 1.6 6.4 0.00 0.00 0.00 32 1010.7
20260503213526 32 244 1.6 8.0 0.00 0.00 0.00 34 1010.7
20260503212626 31 208 3.2 9.7 0.00 0.00 0.00 32 1010.8
20260503211726 31 202 3.2 11.3 0.00 0.00 0.00 31 1010.8
20260503210826 31 208 3.2 9.7 0.00 0.00 0.00 30 1010.8
20260503205926 31 196 3.2 14.5 0.00 0.00 0.00 31 1010.9
20260503205026 31 197 1.6 9.7 0.00 0.00 0.00 31 1011.1
20260503204126 31 215 1.6 11.3 0.00 0.00 0.00 32 1011.2
20260503203226 31 184 1.6 9.7 0.00 0.00 0.00 36 1011.3
20260503200526 30 209 1.6 8.0 0.00 0.00 0.00 35 1011.7
20260503195626 29 226 3.2 11.3 0.00 0.00 0.00 40 1011.7
20260503194726 28 199 1.6 8.0 0.00 0.00 0.00 36 1012.0
20260503192926 28 216 1.6 8.0 0.00 0.00 0.00 41 1012.0
20260503192026 28 220 1.6 8.0 0.00 0.00 0.00 40 1012.2
20260503191127 27 214 1.6 6.4 0.00 0.00 0.00 44 1012.3
20260503185326 26 187 0.0 4.8 0.00 0.00 0.00 46 1012.5
20260503184426 26 213 1.6 4.8 0.00 0.00 0.00 45 1012.6
20260503183526 26 234 0.0 4.8 0.00 0.00 0.00 48 1012.7
20260503182626 25 197 0.0 4.8 0.00 0.00 0.00 46 1012.8
20260503181726 25 212 1.6 8.0 0.00 0.00 0.00 49 1012.8
20260503175926 24 209 3.2 8.0 0.00 0.00 0.00 49 1012.9
20260503175026 24 212 1.6 8.0 0.00 0.00 0.00 50 1013.0
20260503174126 23 214 0.0 3.2 0.00 0.00 0.00 52 1013.1
20260503173226 23 191 1.6 8.0 0.00 0.00 0.00 53 1013.1
20260503172326 22 191 1.6 11.3 0.00 0.00 0.00 52 1013.2
20260503171426 22 197 1.6 6.4 0.00 0.00 0.00 57 1013.2
20260503150826 9 0 0.0 0.0 0.00 0.00 0.00 96 1013.7
20260503131126 7 0 0.0 0.0 0.00 0.00 0.00 93 1013.4
20260503130226 7 0 0.0 0.0 0.00 0.00 0.00 93 1013.4
20260503110526 8 0 0.0 0.0 0.00 0.00 0.00 92 1013.9
20260503081426 10 0 0.0 0.0 0.00 0.00 0.00 88 1014.2
20260503072926 10 0 0.0 0.0 0.00 0.00 0.00 88 1014.2
20260503072026 10 0 0.0 0.0 0.00 0.00 0.00 89 1014.2
20260503070226 11 0 0.0 0.0 0.00 0.00 0.00 89 1014.1
20260503055026 12 0 0.0 0.0 0.00 0.00 0.00 87 1014.1
20260503054126 12 0 0.0 0.0 0.00 0.00 0.00 86 1014.0
20260503053226 12 0 0.0 0.0 0.00 0.00 0.00 84 1014.1
20260503052326 12 0 0.0 0.0 0.00 0.00 0.00 82 1014.1
20260503051426 12 0 0.0 0.0 0.00 0.00 0.00 82 1014.0
20260503050526 12 0 0.0 0.0 0.00 0.00 0.00 82 1013.9
20260503045626 13 0 0.0 0.0 0.00 0.00 0.00 81 1013.9
20260503044726 13 0 0.0 0.0 0.00 0.00 0.00 81 1013.7
20260503043826 13 0 0.0 0.0 0.00 0.00 0.00 80 1013.7
20260503042926 14 0 0.0 0.0 0.00 0.00 0.00 79 1013.7
20260503042026 14 0 0.0 0.0 0.00 0.00 0.00 78 1013.7
20260503041126 15 0 0.0 0.0 0.00 0.00 0.00 77 1013.5
20260503040226 15 0 0.0 0.0 0.00 0.00 0.00 76 1013.4
20260503035326 15 0 0.0 0.0 0.00 0.00 0.00 76 1013.3
20260503034426 15 0 0.0 0.0 0.00 0.00 0.00 76 1013.1
20260503032626 16 0 0.0 0.0 0.00 0.00 0.00 75 1012.9
20260503031726 16 0 0.0 0.0 0.00 0.00 0.00 74 1012.9
20260503030826 17 0 0.0 0.0 0.00 0.00 0.00 73 1012.8
20260503025926 17 0 0.0 0.0 0.00 0.00 0.00 72 1012.8
20260503025026 17 0 0.0 0.0 0.00 0.00 0.00 71 1012.7
20260503024126 17 0 0.0 0.0 0.00 0.00 0.00 70 1012.6
20260503023226 18 0 0.0 0.0 0.00 0.00 0.00 70 1012.5
20260503022326 18 0 0.0 0.0 0.00 0.00 0.00 70 1012.5
20260503021426 18 0 0.0 0.0 0.00 0.00 0.00 68 1012.5
20260503020526 18 0 0.0 0.0 0.00 0.00 0.00 67 1012.5
20260503014726 19 153 0.0 6.4 0.00 0.00 0.00 65 1012.5
20260503012926 20 154 0.0 1.6 0.00 0.00 0.00 64 1012.7
20260503012026 20 132 0.0 6.4 0.00 0.00 0.00 63 1012.7
20260503011126 20 152 1.6 8.0 0.00 0.00 0.00 61 1012.7
20260503010226 21 147 0.0 3.2 0.00 0.00 0.00 59 1012.7
20260503003526 22 111 0.0 3.2 0.00 0.00 0.00 59 1012.7
20260503002626 22 115 0.0 6.4 0.00 0.00 0.00 57 1012.7
20260503000826 22 97 0.0 6.4 0.00 0.00 0.00 59 1012.9
20260502235926 23 155 0.0 6.4 0.00 0.00 0.00 56 1012.9
20260502235026 23 148 0.0 8.0 0.00 0.00 0.00 54 1013.1
20260502234126 24 290 0.0 3.2 0.00 0.00 0.00 51 1013.2
20260502233226 25 227 0.0 1.6 0.00 0.00 0.00 55 1013.3
20260502232326 24 239 0.0 6.4 0.00 0.00 0.00 57 1013.5
20260502231426 24 147 0.0 6.4 0.00 0.00 0.00 56 1013.6